Time,TemperatureF,DewpointF,PressureIn,WindDirection,WindDirectionDegrees,WindSpeedMPH,WindSpeedGustMPH,Humidity,HourlyPrecipIn,Conditions,Clouds,dailyrainin,SoftwareType,DateUTC
2013-04-25 00:08:00,48.0,41.0,30.20,North,360,8.0,-999.0,77,-99.99,,,0.00,weatherlink.com 1.10,2013-04-25 05:08:00,
2013-04-25 00:23:00,47.8,41.0,30.21,NNW,346,10.0,-999.0,76,-99.99,,,0.00,weatherlink.com 1.10,2013-04-25 05:23:00,
2013-04-25 00:38:00,47.8,41.0,30.21,NNW,344,7.0,-999.0,77,-99.99,,,0.00,weatherlink.com 1.10,2013-04-25 05:38:00,
2013-04-25 00:54:00,47.5,40.0,30.21,NNE,26,13.0,-999.0,76,-99.99,,,0.00,weatherlink.com 1.10,2013-04-25 05:54:00,
2013-04-25 01:08:00,47.2,40.0,30.20,NNW,340,7.0,-999.0,77,-99.99,,,0.00,weatherlink.com 1.10,2013-04-25 06:08:00,
2013-04-25 01:23:00,47.4,41.0,30.20,NNE,13,11.0,-999.0,79,-99.99,,,0.00,weatherlink.com 1.10,2013-04-25 06:23:00,
2013-04-25 01:38:00,47.1,40.0,30.20,NNE,12,4.0,-999.0,77,-99.99,,,0.00,weatherlink.com 1.10,2013-04-25 06:38:00,
2013-04-25 01:53:00,46.5,39.0,30.19,North,355,11.0,-999.0,76,-99.99,,,0.00,weatherlink.com 1.10,2013-04-25 06:53:00,
2013-04-25 02:08:00,46.3,39.0,30.20,NE,34,10.0,-999.0,76,-99.99,,,0.00,weatherlink.com 1.10,2013-04-25 07:08:00,
2013-04-25 02:23:00,46.3,39.0,30.20,North,5,11.0,-999.0,75,-99.99,,,0.00,weatherlink.com 1.10,2013-04-25 07:23:00,
2013-04-25 02:38:00,46.1,39.0,30.20,North,351,7.0,-999.0,76,-99.99,,,0.00,weatherlink.com 1.10,2013-04-25 07:38:00,
2013-04-25 02:53:00,45.8,39.0,30.20,NNE,18,6.0,-999.0,77,-99.99,,,0.00,weatherlink.com 1.10,2013-04-25 07:53:00,
2013-04-25 03:08:00,45.7,39.0,30.21,NNE,13,11.0,-999.0,78,-99.99,,,0.00,weatherlink.com 1.10,2013-04-25 08:08:00,
2013-04-25 03:23:00,45.5,39.0,30.20,NE,46,9.0,-999.0,77,-99.99,,,0.00,weatherlink.com 1.10,2013-04-25 08:23:00,
2013-04-25 03:39:00,45.3,39.0,30.20,NNE,16,9.0,-999.0,77,-99.99,,,0.00,weatherlink.com 1.10,2013-04-25 08:39:00,
2013-04-25 03:53:00,45.1,38.0,30.20,North,5,10.0,-999.0,77,-99.99,,,0.00,weatherlink.com 1.10,2013-04-25 08:53:00,
2013-04-25 04:08:00,45.2,38.0,30.20,North,5,8.0,-999.0,77,-99.99,,,0.00,weatherlink.com 1.10,2013-04-25 09:08:00,
2013-04-25 04:23:00,45.4,40.0,30.21,NNW,339,1.0,-999.0,80,-99.99,,,0.00,weatherlink.com 1.10,2013-04-25 09:23:00,
2013-04-25 04:38:00,45.0,39.0,30.22,NW,321,7.0,-999.0,79,-99.99,,,0.00,weatherlink.com 1.10,2013-04-25 09:38:00,
2013-04-25 04:53:00,45.1,40.0,30.23,NNW,348,9.0,-999.0,81,-99.99,,,0.00,weatherlink.com 1.10,2013-04-25 09:53:00,
2013-04-25 05:08:00,45.2,39.0,30.23,North,355,8.0,-999.0,80,-99.99,,,0.00,weatherlink.com 1.10,2013-04-25 10:08:00,
2013-04-25 05:23:00,45.2,40.0,30.23,NNW,336,7.0,-999.0,81,-99.99,,,0.00,weatherlink.com 1.10,2013-04-25 10:23:00,
2013-04-25 05:38:00,45.1,40.0,30.24,NNW,341,11.0,-999.0,83,-99.99,,,0.00,weatherlink.com 1.10,2013-04-25 10:38:00,
2013-04-25 05:53:00,44.7,40.0,30.24,NNW,331,10.0,-999.0,82,-99.99,,,0.00,weatherlink.com 1.10,2013-04-25 10:53:00,
2013-04-25 06:08:00,44.3,39.0,30.25,NNW,338,8.0,-999.0,83,-99.99,,,0.00,weatherlink.com 1.10,2013-04-25 11:08:00,
2013-04-25 06:24:00,44.2,39.0,30.25,North,349,4.0,-999.0,82,-99.99,,,0.00,weatherlink.com 1.10,2013-04-25 11:24:00,
2013-04-25 06:38:00,44.0,39.0,30.27,NNW,330,8.0,-999.0,82,-99.99,,,0.00,weatherlink.com 1.10,2013-04-25 11:38:00,
2013-04-25 06:53:00,43.8,39.0,30.27,NNW,344,6.0,-999.0,83,-99.99,,,0.00,weatherlink.com 1.10,2013-04-25 11:53:00,
2013-04-25 07:08:00,44.2,39.0,30.28,NNW,333,8.0,-999.0,82,-99.99,,,0.00,weatherlink.com 1.10,2013-04-25 12:08:00,
2013-04-25 07:23:00,44.8,39.0,30.28,NNW,332,10.0,-999.0,80,-99.99,,,0.00,weatherlink.com 1.10,2013-04-25 12:23:00,
2013-04-25 07:38:00,45.6,39.0,30.29,NNE,12,5.0,-999.0,78,-99.99,,,0.00,weatherlink.com 1.10,2013-04-25 12:38:00,
2013-04-25 07:53:00,46.1,40.0,30.29,NNW,346,11.0,-999.0,78,-99.99,,,0.00,weatherlink.com 1.10,2013-04-25 12:53:00,
2013-04-25 08:09:00,45.8,39.0,30.30,NNW,327,5.0,-999.0,77,-99.99,,,0.00,weatherlink.com 1.10,2013-04-25 13:09:00,
2013-04-25 08:23:00,46.8,39.0,30.30,NE,49,3.0,-999.0,74,-99.99,,,0.00,weatherlink.com 1.10,2013-04-25 13:23:00,
2013-04-25 08:38:00,46.8,39.0,30.30,North,5,3.0,-999.0,74,-99.99,,,0.00,weatherlink.com 1.10,2013-04-25 13:38:00,
2013-04-25 08:53:00,47.2,40.0,30.31,NNW,342,6.0,-999.0,75,-99.99,,,0.00,weatherlink.com 1.10,2013-04-25 13:53:00,
2013-04-25 09:10:00,48.0,39.0,30.31,North,351,8.0,-999.0,72,-99.99,,,0.00,weatherlink.com 1.10,2013-04-25 14:10:00,
2013-04-25 09:23:00,48.1,39.0,30.32,NW,326,5.0,-999.0,72,-99.99,,,0.00,weatherlink.com 1.10,2013-04-25 14:23:00,
2013-04-25 09:38:00,49.4,40.0,30.32,North,360,10.0,-999.0,70,-99.99,,,0.00,weatherlink.com 1.10,2013-04-25 14:38:00,
2013-04-25 09:53:00,50.2,40.0,30.33,NW,313,8.0,-999.0,68,-99.99,,,0.00,weatherlink.com 1.10,2013-04-25 14:53:00,
2013-04-25 10:08:00,51.4,39.0,30.33,NNW,335,1.0,-999.0,64,-99.99,,,0.00,weatherlink.com 1.10,2013-04-25 15:08:00,
2013-04-25 10:23:00,52.2,38.0,30.33,North,5,7.0,-999.0,60,-99.99,,,0.00,weatherlink.com 1.10,2013-04-25 15:23:00,
2013-04-25 10:39:00,52.6,39.0,30.33,NE,37,7.0,-999.0,61,-99.99,,,0.00,weatherlink.com 1.10,2013-04-25 15:39:00,
2013-04-25 10:54:00,53.4,39.0,30.33,North,360,6.0,-999.0,59,-99.99,,,0.00,weatherlink.com 1.10,2013-04-25 15:54:00,
2013-04-25 11:08:00,54.4,38.0,30.34,NE,45,1.0,-999.0,54,-99.99,,,0.00,weatherlink.com 1.10,2013-04-25 16:08:00,
2013-04-25 11:23:00,55.0,38.0,30.33,ENE,65,1.0,-999.0,54,-99.99,,,0.00,weatherlink.com 1.10,2013-04-25 16:23:00,
2013-04-25 11:38:00,55.3,38.0,30.33,East,84,0.0,-999.0,52,-99.99,,,0.00,weatherlink.com 1.10,2013-04-25 16:38:00,
2013-04-25 11:55:00,57.1,39.0,30.33,ENE,60,9.0,-999.0,51,-99.99,,,0.00,weatherlink.com 1.10,2013-04-25 16:55:00,
2013-04-25 12:09:00,57.1,38.0,30.33,NNE,23,0.0,-999.0,50,-99.99,,,0.00,weatherlink.com 1.10,2013-04-25 17:09:00,
2013-04-25 12:24:00,58.6,37.0,30.32,NW,326,8.0,-999.0,44,-99.99,,,0.00,weatherlink.com 1.10,2013-04-25 17:24:00,
2013-04-25 12:39:00,58.9,36.0,30.32,NNW,330,8.0,-999.0,43,-99.99,,,0.00,weatherlink.com 1.10,2013-04-25 17:39:00,
2013-04-25 12:54:00,60.5,38.0,30.31,NE,44,2.0,-999.0,43,-99.99,,,0.00,weatherlink.com 1.10,2013-04-25 17:54:00,
2013-04-25 13:09:00,60.4,38.0,30.30,NNE,24,4.0,-999.0,43,-99.99,,,0.00,weatherlink.com 1.10,2013-04-25 18:09:00,
2013-04-25 13:24:00,61.2,37.0,30.30,North,351,1.0,-999.0,41,-99.99,,,0.00,weatherlink.com 1.10,2013-04-25 18:24:00,
2013-04-25 13:39:00,62.4,39.0,30.30,NNE,17,0.0,-999.0,43,-99.99,,,0.00,weatherlink.com 1.10,2013-04-25 18:39:00,
2013-04-25 13:54:00,63.1,38.0,30.30,North,9,1.0,-999.0,39,-99.99,,,0.00,weatherlink.com 1.10,2013-04-25 18:54:00,
2013-04-25 14:09:00,63.2,38.0,30.30,NW,319,0.0,-999.0,39,-99.99,,,0.00,weatherlink.com 1.10,2013-04-25 19:09:00,
2013-04-25 14:24:00,63.3,37.0,30.29,NNW,332,5.0,-999.0,38,-99.99,,,0.00,weatherlink.com 1.10,2013-04-25 19:24:00,
2013-04-25 14:39:00,64.6,36.0,30.29,North,355,0.0,-999.0,35,-99.99,,,0.00,weatherlink.com 1.10,2013-04-25 19:39:00,
2013-04-25 14:54:00,65.2,37.0,30.28,NW,306,1.0,-999.0,35,-99.99,,,0.00,weatherlink.com 1.10,2013-04-25 19:54:00,
2013-04-25 15:09:00,65.9,36.0,30.28,ENE,57,1.0,-999.0,33,-99.99,,,0.00,weatherlink.com 1.10,2013-04-25 20:09:00,
2013-04-25 15:24:00,65.8,37.0,30.28,NNW,338,1.0,-999.0,34,-99.99,,,0.00,weatherlink.com 1.10,2013-04-25 20:24:00,
2013-04-25 15:39:00,66.7,35.0,30.27,NNW,344,0.0,-999.0,31,-99.99,,,0.00,weatherlink.com 1.10,2013-04-25 20:39:00,
2013-04-25 15:54:00,66.7,35.0,30.27,NW,318,1.0,-999.0,31,-99.99,,,0.00,weatherlink.com 1.10,2013-04-25 20:54:00,
2013-04-25 16:09:00,66.5,36.0,30.27,North,5,3.0,-999.0,32,-99.99,,,0.00,weatherlink.com 1.10,2013-04-25 21:09:00,
2013-04-25 16:24:00,65.8,34.0,30.27,NNW,329,6.0,-999.0,31,-99.99,,,0.00,weatherlink.com 1.10,2013-04-25 21:24:00,
2013-04-25 16:39:00,65.9,34.0,30.27,NNW,331,4.0,-999.0,30,-99.99,,,0.00,weatherlink.com 1.10,2013-04-25 21:39:00,
2013-04-25 16:54:00,66.1,33.0,30.27,NW,305,8.0,-999.0,29,-99.99,,,0.00,weatherlink.com 1.10,2013-04-25 21:54:00,
2013-04-25 17:09:00,66.1,35.0,30.27,NNW,331,8.0,-999.0,32,-99.99,,,0.00,weatherlink.com 1.10,2013-04-25 22:09:00,
2013-04-25 17:24:00,65.9,34.0,30.27,NNW,327,6.0,-999.0,31,-99.99,,,0.00,weatherlink.com 1.10,2013-04-25 22:24:00,
2013-04-25 17:39:00,65.4,35.0,30.27,WNW,294,5.0,-999.0,32,-99.99,,,0.00,weatherlink.com 1.10,2013-04-25 22:39:00,
2013-04-25 17:54:00,65.1,34.0,30.27,NNW,332,7.0,-999.0,32,-99.99,,,0.00,weatherlink.com 1.10,2013-04-25 22:54:00,
2013-04-25 18:09:00,64.9,36.0,30.27,WNW,295,7.0,-999.0,34,-99.99,,,0.00,weatherlink.com 1.10,2013-04-25 23:09:00,
2013-04-25 18:24:00,64.4,38.0,30.26,NW,318,2.0,-999.0,38,-99.99,,,0.00,weatherlink.com 1.10,2013-04-25 23:24:00,
2013-04-25 18:39:00,64.0,38.0,30.27,NW,325,8.0,-999.0,39,-99.99,,,0.00,weatherlink.com 1.10,2013-04-25 23:39:00,
2013-04-25 18:54:00,63.4,36.0,30.27,NNW,332,5.0,-999.0,37,-99.99,,,0.00,weatherlink.com 1.10,2013-04-25 23:54:00,
2013-04-25 19:09:00,62.3,38.0,30.27,NW,325,0.0,-999.0,41,-99.99,,,0.00,weatherlink.com 1.10,2013-04-26 00:09:00,
2013-04-25 19:24:00,61.1,38.0,30.27,NW,315,0.0,-999.0,42,-99.99,,,0.00,weatherlink.com 1.10,2013-04-26 00:24:00,
2013-04-25 19:39:00,59.7,39.0,30.27,NW,315,0.0,-999.0,47,-99.99,,,0.00,weatherlink.com 1.10,2013-04-26 00:39:00,
2013-04-25 19:54:00,58.2,38.0,30.27,NNW,332,0.0,-999.0,48,-99.99,,,0.00,weatherlink.com 1.10,2013-04-26 00:54:00,
2013-04-25 20:09:00,57.3,40.0,30.28,NNW,333,0.0,-999.0,52,-99.99,,,0.00,weatherlink.com 1.10,2013-04-26 01:09:00,
2013-04-25 20:24:00,55.5,39.0,30.28,ESE,113,0.0,-999.0,54,-99.99,,,0.00,weatherlink.com 1.10,2013-04-26 01:24:00,
2013-04-25 20:39:00,54.4,38.0,30.29,ESE,113,0.0,-999.0,55,-99.99,,,0.00,weatherlink.com 1.10,2013-04-26 01:39:00,
2013-04-25 20:54:00,53.8,40.0,30.30,ESE,113,0.0,-999.0,59,-99.99,,,0.00,weatherlink.com 1.10,2013-04-26 01:54:00,
2013-04-25 21:09:00,53.1,39.0,30.30,ESE,113,0.0,-999.0,60,-99.99,,,0.00,weatherlink.com 1.10,2013-04-26 02:09:00,
2013-04-25 21:24:00,53.7,39.0,30.31,ESE,113,0.0,-999.0,58,-99.99,,,0.00,weatherlink.com 1.10,2013-04-26 02:24:00,
2013-04-25 21:39:00,52.9,40.0,30.31,ESE,113,0.0,-999.0,61,-99.99,,,0.00,weatherlink.com 1.10,2013-04-26 02:39:00,
2013-04-25 21:54:00,51.9,40.0,30.31,ESE,113,0.0,-999.0,63,-99.99,,,0.00,weatherlink.com 1.10,2013-04-26 02:54:00,
2013-04-25 22:09:00,51.3,41.0,30.31,ESE,113,0.0,-999.0,67,-99.99,,,0.00,weatherlink.com 1.10,2013-04-26 03:09:00,
2013-04-25 22:24:00,50.6,40.0,30.31,ESE,113,0.0,-999.0,68,-99.99,,,0.00,weatherlink.com 1.10,2013-04-26 03:24:00,
2013-04-25 22:39:00,49.5,40.0,30.32,ESE,113,0.0,-999.0,69,-99.99,,,0.00,weatherlink.com 1.10,2013-04-26 03:39:00,
2013-04-25 22:54:00,48.5,40.0,30.31,ESE,113,0.0,-999.0,73,-99.99,,,0.00,weatherlink.com 1.10,2013-04-26 03:54:00,
2013-04-25 23:09:00,48.1,40.0,30.31,ESE,113,0.0,-999.0,73,-99.99,,,0.00,weatherlink.com 1.10,2013-04-26 04:09:00,
2013-04-25 23:24:00,47.6,40.0,30.31,ESE,113,0.0,-999.0,76,-99.99,,,0.00,weatherlink.com 1.10,2013-04-26 04:24:00,
2013-04-25 23:39:00,46.8,40.0,30.31,ESE,113,0.0,-999.0,77,-99.99,,,0.00,weatherlink.com 1.10,2013-04-26 04:39:00,
2013-04-25 23:54:00,46.5,40.0,30.31,ESE,113,0.0,-999.0,78,-99.99,,,0.00,weatherlink.com 1.10,2013-04-26 04:54:00,